| time (UTC) | temp C | wind direction | speed KPH | gust KPH | rain 1hr cm | rain 24hr cm | rain mn cm | humidity % | barometer mb |
| 20260902234530 | 13 | 355 | 1.6 | 4.8 | 0.10 | 0.28 | 0.23 | 91 | 1009.6 |
| 20260902233106 | 13 | 21 | 1.6 | 6.4 | 0.05 | 0.23 | 0.23 | 92 | 1009.7 |
| 20260902230029 | 13 | 288 | 1.6 | 8.0 | 0.05 | 0.20 | 0.18 | 91 | 1009.9 |
| 20260902224529 | 13 | 273 | 4.8 | 11.3 | 0.05 | 0.18 | 0.18 | 91 | 1009.8 |
| 20260902223031 | 13 | 294 | 3.2 | 8.0 | 0.05 | 0.18 | 0.18 | 91 | 1009.7 |
| 20260902221532 | 13 | 293 | 4.8 | 11.3 | 0.08 | 0.18 | 0.15 | 90 | 1009.8 |
| 20260902220031 | 13 | 277 | 6.4 | 11.3 | 0.08 | 0.15 | 0.13 | 89 | 1009.7 |
| 20260902214533 | 13 | 297 | 3.2 | 11.3 | 0.08 | 0.13 | 0.13 | 88 | 1009.5 |
| 20260902213146 | 13 | 305 | 3.2 | 9.7 | 0.10 | 0.13 | 0.10 | 87 | 1009.4 |
| 20260902211530 | 13 | 339 | 4.8 | 8.0 | 0.08 | 0.10 | 0.08 | 86 | 1009.4 |
| 20260902204529 | 13 | 86 | 4.8 | 11.3 | 0.05 | 0.05 | 0.03 | 83 | 1009.5 |
| 20260902203030 | 13 | 11 | 4.8 | 11.3 | 0.03 | 0.03 | 0.03 | 80 | 1009.6 |
| 20260902201530 | 14 | 349 | 3.2 | 11.3 | 0.03 | 0.03 | 0.00 | 77 | 1009.8 |
| 20260902200031 | 14 | 175 | 3.2 | 14.5 | 0.00 | 0.00 | 0.00 | 75 | 1009.7 |
| 20260902194530 | 15 | 131 | 4.8 | 14.5 | 0.00 | 0.00 | 0.00 | 74 | 1009.7 |
| 20260902193031 | 15 | 339 | 3.2 | 11.3 | 0.00 | 0.00 | 0.00 | 76 | 1009.7 |
| 20260902191532 | 15 | 2 | 1.6 | 11.3 | 0.00 | 0.00 | 0.00 | 75 | 1009.7 |
| 20260902190030 | 16 | 25 | 0.0 | 4.8 | 0.00 | 0.00 | 0.00 | 74 | 1009.7 |
| 20260902184529 | 16 | 148 | 0.0 | 4.8 | 0.00 | 0.00 | 0.00 | 73 | 1009.7 |
| 20260902183034 | 16 | 217 | 3.2 | 6.4 | 0.00 | 0.00 | 0.00 | 73 | 1009.8 |
| 20260902181531 | 16 | 267 | 0.0 | 8.0 | 0.00 | 0.00 | 0.00 | 74 | 1009.6 |
| 20260902180030 | 15 | 292 | 0.0 | 1.6 | 0.00 | 0.00 | 0.00 | 74 | 1009.7 |
| 20260902174531 | 15 | 307 | 3.2 | 9.7 | 0.00 | 0.00 | 0.00 | 73 | 1009.7 |
| 20260902173032 | 16 | 273 | 6.4 | 11.3 | 0.00 | 0.00 | 0.00 | 73 | 1009.7 |
| 20260902171529 | 15 | 266 | 3.2 | 8.0 | 0.00 | 0.00 | 0.00 | 75 | 1009.8 |
| 20260902170032 | 15 | 272 | 1.6 | 6.4 | 0.00 | 0.00 | 0.00 | 76 | 1009.9 |
| 20260902164529 | 14 | 320 | 1.6 | 6.4 | 0.00 | 0.00 | 0.00 | 76 | 1010.2 |
| 20260902163030 | 14 | 326 | 1.6 | 6.4 | 0.00 | 0.00 | 0.00 | 77 | 1010.4 |
| 20260902160031 | 14 | 17 | 3.2 | 8.0 | 0.00 | 0.00 | 0.00 | 76 | 1010.7 |
| 20260902154647 | 14 | 12 | 3.2 | 6.4 | 0.00 | 0.00 | 0.00 | 79 | 1010.9 |
| 20260902153029 | 13 | 349 | 0.0 | 4.8 | 0.00 | 0.00 | 0.00 | 82 | 1011.0 |
| 20260902151532 | 12 | 85 | 0.0 | 3.2 | 0.00 | 0.00 | 0.00 | 84 | 1010.9 |
| 20260902150030 | 12 | 99 | 0.0 | 4.8 | 0.00 | 0.00 | 0.00 | 86 | 1011.1 |
| 20260902144530 | 11 | 151 | 1.6 | 8.0 | 0.00 | 0.00 | 0.00 | 89 | 1011.2 |
| 20260902143108 | 10 | 152 | 0.0 | 4.8 | 0.00 | 0.00 | 0.00 | 90 | 1011.3 |
| 20260902141531 | 9 | 148 | 3.2 | 6.4 | 0.00 | 0.00 | 0.00 | 90 | 1011.3 |
| 20260902140031 | 8 | 157 | 1.6 | 8.0 | 0.00 | 0.00 | 0.00 | 89 | 1011.4 |
| 20260902134531 | 8 | 116 | 0.0 | 8.0 | 0.00 | 0.00 | 0.00 | 89 | 1011.3 |
| 20260902131644 | 7 | 187 | 3.2 | 8.0 | 0.00 | 0.00 | 0.00 | 87 | 1011.5 |
| 20260902130032 | 7 | 158 | 3.2 | 8.0 | 0.00 | 0.00 | 0.00 | 85 | 1011.4 |
| 20260902124606 | 8 | 148 | 3.2 | 6.4 | 0.00 | 0.00 | 0.00 | 83 | 1011.5 |
| 20260902123033 | 9 | 196 | 3.2 | 8.0 | 0.00 | 0.00 | 0.00 | 81 | 1011.5 |
| 20260902121531 | 11 | 144 | 4.8 | 8.0 | 0.00 | 0.00 | 0.00 | 79 | 1011.7 |
| 20260902120106 | 11 | 325 | 4.8 | 9.7 | 0.00 | 0.00 | 0.00 | 78 | 1011.7 |
| 20260902111531 | 12 | 303 | 6.4 | 19.3 | 0.00 | 0.00 | 0.00 | 73 | 1011.5 |
| 20260902110030 | 13 | 309 | 6.4 | 20.9 | 0.00 | 0.00 | 0.00 | 72 | 1011.6 |
| 20260902103033 | 13 | 293 | 9.7 | 22.5 | 0.00 | 0.00 | 0.00 | 73 | 1012.0 |
| 20260902101531 | 13 | 286 | 8.0 | 20.9 | 0.00 | 0.00 | 0.00 | 73 | 1012.1 |
| 20260902100032 | 13 | 283 | 8.0 | 17.7 | 0.00 | 0.00 | 0.00 | 72 | 1012.3 |
| 20260902094530 | 13 | 276 | 8.0 | 22.5 | 0.00 | 0.00 | 0.00 | 72 | 1012.4 |
| 20260902093031 | 13 | 279 | 8.0 | 22.5 | 0.00 | 0.00 | 0.00 | 72 | 1012.5 |
| 20260902084530 | 13 | 279 | 8.0 | 20.9 | 0.00 | 0.00 | 0.00 | 72 | 1012.5 |
| 20260902083032 | 13 | 294 | 6.4 | 17.7 | 0.00 | 0.00 | 0.00 | 73 | 1012.6 |
| 20260902081530 | 13 | 287 | 6.4 | 17.7 | 0.00 | 0.00 | 0.00 | 73 | 1012.6 |
| 20260902080029 | 13 | 322 | 6.4 | 14.5 | 0.00 | 0.00 | 0.00 | 74 | 1012.6 |
| 20260902074606 | 13 | 301 | 8.0 | 17.7 | 0.00 | 0.00 | 0.00 | 74 | 1012.6 |
| 20260902073030 | 13 | 306 | 6.4 | 16.1 | 0.00 | 0.00 | 0.00 | 74 | 1012.7 |
| 20260902071532 | 13 | 316 | 8.0 | 20.9 | 0.00 | 0.00 | 0.00 | 73 | 1012.9 |
| 20260902070029 | 14 | 325 | 8.0 | 20.9 | 0.00 | 0.00 | 0.00 | 73 | 1013.1 |
| 20260902064532 | 14 | 307 | 8.0 | 20.9 | 0.00 | 0.00 | 0.00 | 72 | 1013.4 |
| 20260902063029 | 15 | 310 | 6.4 | 12.9 | 0.00 | 0.00 | 0.00 | 72 | 1013.6 |
| 20260902061531 | 15 | 312 | 8.0 | 30.6 | 0.00 | 0.00 | 0.00 | 71 | 1013.6 |
| 20260902060031 | 15 | 291 | 4.8 | 19.3 | 0.00 | 0.00 | 0.00 | 71 | 1013.6 |
| 20260902054529 | 15 | 195 | 0.0 | 11.3 | 0.00 | 0.00 | 0.00 | 70 | 1013.6 |
| 20260902053031 | 15 | 320 | 3.2 | 11.3 | 0.00 | 0.00 | 0.00 | 69 | 1013.4 |
| 20260902051529 | 15 | 263 | 6.4 | 16.1 | 0.00 | 0.00 | 0.00 | 70 | 1013.4 |
| 20260902050145 | 15 | 253 | 4.8 | 22.5 | 0.00 | 0.00 | 0.00 | 71 | 1013.3 |
| 20260902044530 | 15 | 281 | 3.2 | 11.3 | 0.00 | 0.00 | 0.00 | 70 | 1013.2 |
| 20260902043147 | 15 | 208 | 3.2 | 11.3 | 0.00 | 0.00 | 0.00 | 70 | 1013.1 |
| 20260902041605 | 15 | 255 | 6.4 | 17.7 | 0.00 | 0.00 | 0.00 | 69 | 1013.0 |
| 20260902040029 | 15 | 262 | 6.4 | 24.1 | 0.00 | 0.00 | 0.00 | 69 | 1012.8 |
| 20260902034607 | 15 | 293 | 8.0 | 22.5 | 0.00 | 0.00 | 0.00 | 69 | 1012.5 |
| 20260902033029 | 15 | 273 | 6.4 | 14.5 | 0.00 | 0.00 | 0.00 | 68 | 1012.5 |
| 20260902031531 | 15 | 296 | 6.4 | 22.5 | 0.00 | 0.00 | 0.00 | 67 | 1012.4 |
| 20260902030106 | 15 | 277 | 11.3 | 33.8 | 0.00 | 0.00 | 0.00 | 67 | 1012.4 |
| 20260902024609 | 15 | 259 | 8.0 | 22.5 | 0.00 | 0.00 | 0.00 | 68 | 1012.7 |
| 20260902021532 | 16 | 279 | 6.4 | 20.9 | 0.00 | 0.00 | 0.00 | 64 | 1012.5 |
| 20260902013032 | 17 | 277 | 11.3 | 24.1 | 0.00 | 0.00 | 0.00 | 60 | 1012.1 |
| 20260902011530 | 18 | 282 | 14.5 | 38.6 | 0.00 | 0.00 | 0.00 | 59 | 1011.9 |
| 20260902010030 | 18 | 292 | 12.9 | 29.0 | 0.00 | 0.00 | 0.00 | 59 | 1011.9 |
| 20260902003029 | 18 | 295 | 12.9 | 33.8 | 0.00 | 0.00 | 0.00 | 59 | 1011.5 |
| 20260902000108 | 19 | 276 | 11.3 | 27.4 | 0.00 | 0.00 | 0.00 | 60 | 1011.4 |